Location: Remedello Sotto
(45.2500°N, 10.3667°E)
Time: 10:34:34
(UTC+00:00)

Atlas Centaur 2 - Pass Details

Date: 03 February 2023
Orbit: 459 x 1295 km, 30.4° (Epoch: 31 March)

Event Time Altitude Azimuth Distance (km) Brightness Sun altitude
Rises 18:05:29 0° 227° (SW) 4,083 6.6 -17.4°
Reaches altitude 10° 18:08:55 10° 214° (SSW) 3,206 5.7 -18.0°
Maximum altitude 18:15:03 24° 165° (SSE) 2,421 4.4 -19.0°
Enters shadow 18:19:05 17° 130° (SE) 2,822 4.5 -19.7°
